Regional Weather Roundup
Issued by NWS

Home | Current Version | Previous Version | Graphics & Text | Print | Product List | Glossary On
Versions: 1 2 3 4 5 6 7 8 9 10 11 12 13 14 15 16 17 18 19 20 21 22 23 24 25 26 27
000
ASUS45 KBOU 270407
RWRCO

WEATHER ROUNDUP FOR COLORADO
NATIONAL WEATHER SERVICE DENVER/BOULDER CO
1000 PM MDT FRI AUG 26 2016

NOTE: "FAIR" INDICATES FEW OR NO CLOUDS BELOW 12000 FEET WITH NO
SIGNIFICANT WEATHER AND/OR OBSTRUCTIONS TO VISIBILITY.

COZ001>005-013-030-031-270500-
...NORTHWEST COLORADO...

CITY           SKY/WX    TMP DP  RH WIND       PRES   REMARKS
CRAIG          FAIR      54  46  74 VRB5      30.21R
HAYDEN         FAIR      54  37  54 CALM      30.23S
MEEKER         FAIR      55  43  63 CALM      30.22R
MOUNT WERNER   NOT AVBL
STEAMBOAT SPGS FAIR      52  42  67 NE7       30.24F
WALDEN         MOCLDY    50  34  53 S7        30.32S
$$

COZ006>008-011-270500-
...WEST CENTRAL VALLEYS...

CITY           SKY/WX    TMP DP  RH WIND       PRES   REMARKS
GRAND JUNCTION LGT RAIN  63  49  60 N17       30.16R
MONTROSE       FAIR      62  45  53 SE8       30.18R
EAGLE          FAIR      61  41  48 E5        30.23R
RIFLE          LGT RAIN  60  48  64 NW17      30.24R
DELTA          NOT AVBL
NUCLA          FAIR     N/A N/A N/A E3        30.22R
$$

COZ017>023-064>068-270500-
...SOUTHWEST COLORADO...

CITY           SKY/WX    TMP DP  RH WIND       PRES   REMARKS
DURANGO        FAIR      58  45  62 N5        30.24R
CORTEZ         FAIR      59  52  77 NE6       30.19R
PAGOSA SPRINGS FAIR      54  46  76 CALM      30.31R
TELLURIDE      FAIR      49  45  85 SE3       30.41R
WOLF CREEK PAS FAIR      37  37 100 SW12      30.58R
$$

COZ009-010-012-014-032>034-037-058>063-270500-
...CENTRAL COLORADO...

CITY           SKY/WX    TMP DP  RH WIND       PRES   REMARKS
ASPEN          FAIR      49  38  65 SW10      30.27S
BUENA VISTA    MOCLDY    53  38  56 NW8       30.30R
COPPER MTN     FAIR      45  23  42 S8        30.53S
BERTHOUD PASS  FAIR      34  23  64 W8        30.54F WCI  27
COTTONWOOD PAS CLOUDY    55  27  33 SW10      30.41S
GUNNISON       FAIR      54  39  58 N7        30.32R
KREMMLING      FAIR      50  39  66 SE6       30.29F
LEADVILLE      FAIR      40  31  70 NE7       30.40R
MONARCH PASS   FAIR      41  28  60 W12       30.64S
SALIDA         FAIR      60  38  44 SW6       30.34R
SUNLIGHT       MOCLDY    45  36  70 E12G20    30.50R
WILKERSON PASS FAIR      45  28  53 W3        30.52S
$$

COZ069>075-270500-
...SAN LUIS VALLEY/SANGRE DE CRISTO MOUNTAINS...

CITY           SKY/WX    TMP DP  RH WIND       PRES   REMARKS
ALAMOSA        FAIR      53  41  63 W3        30.28R
LA VETA PASS   FAIR      46  32  57 S5        30.43R
SAGUACHE       CLOUDY    55  41  58 CALM      30.31R
$$

COZ035-036-038>040-270500-
...NORTHERN COLORADO FRONT RANGE...

CITY           SKY/WX    TMP DP  RH WIND       PRES   REMARKS
DENVER INTL AP FAIR      60  49  66 SE13      30.12S
DMNS CITY PARK   N/A     62  51  68 E9        30.12S
AURORA         PTCLDY    59  53  80 SE13      30.14S
FRONT RANGE AP NOT AVBL
ERIE MUNI ARPT FAIR      61  48  63 CALM      30.13R
BOULDER MUN AP FAIR      59  46  63 N5        30.14S
CENTENNIAL     FAIR      61  50  67 SE9       30.15S
BROOMFIELD     MOCLDY    63  50  63 SE5       30.15R
FORT COLLINS   FAIR      59  46  63 CALM      30.13F
LONGMONT       FAIR      60  49  67 N3        30.15S
$$

COZ041-046-047-076>085-087-088-270500-
...PIKES PEAK/PALMER DIVIDE AND SOUTHERN FOOTHILLS...

CITY           SKY/WX    TMP DP  RH WIND       PRES   REMARKS
COLO. SPRINGS  FAIR      61  45  55 E6        30.20R
A. F. ACADEMY  FAIR      54  49  83 N7        30.20S
SCHRIEVER AFB  NOT AVBL
ELLICOTT       NOT AVBL
FALCON         FAIR      57  45  62 CALM      30.24S
FORT CARSON    FAIR      61  48  64 VRB6      30.17R
LIMON          FAIR      54  50  86 SE3       30.15R
MONUMENT HILL  FAIR      50  46  87 S6        30.24S
TRINIDAD       FAIR      62  49  62 NW8       30.15R
$$

COZ042>045-048>051-090-091-270500-
...NORTHEAST COLORADO...

CITY           SKY/WX    TMP DP  RH WIND       PRES   REMARKS
GREELEY ARPT   FAIR      61  54  77 CALM      30.13R
AKRON          FAIR      55  52  89 S10       30.11R
BURLINGTON     FAIR      56  50  80 E8        30.11R
WRAY           FAIR      55  55 100 SE5       30.08S
STERLING       FAIR      54  54 100 CALM      30.08S
HOLYOKE        CLOUDY    59  55  88 S3        30.09S FOG
FORT MORGAN    FAIR      54  50  87 E5        30.11S
$$

COZ086-089-092>099-270500-
...SOUTHEAST COLORADO...

CITY           SKY/WX    TMP DP  RH WIND       PRES   REMARKS
PUEBLO         FAIR      66  50  56 W6        30.09R
LA JUNTA       FAIR      69  54  58 S5        30.06R
LAMAR          FAIR      65  53  65 E7        30.03R
SPRINGFIELD      N/A     62  58  86 S14       30.09R
$$




USA.gov is the U.S. government's official web portal to all federal, state and local government web resources and services.